Location: Agadir Mansour Mhndou
(31.2424°N, 8.7730°W)
Time: 06:10:55
(UTC+00:00)

H-2A R/B - Pass Details

Date: 16 October 2021
Orbit: 733 x 837 km, 98.2° (Epoch: 28 November)

Event Time Altitude Azimuth Distance (km) Brightness Sun altitude
Rises 18:20:27 0° 152° (SSE) 3,277 5.1 -4.7°
Reaches altitude 10° 18:22:48 10° 147° (SSE) 2,366 4.3 -5.2°
Maximum altitude 18:27:50 49° 73° (ENE) 1,049 2.3 -6.3°
Drops below altitude 10° 18:33:00 10° 0° (N) 2,433 4.5 -7.4°
Sets 18:35:27 0° 355° (N) 3,378 5.3 -7.9°
